CZ-6A DEB

Satellite information

Favourite Embed

Satellite Type and Status

DEBRISIN ORBIT

Key statistics

Satellite CZ-6A DEB at a glance.

Uptime

273

Days in orbit

Revolutions

≈ 14.1

Per day

Orbit

LEO

Low Earth Orbit

Inclination

89.0

Latest

Satellite identification and parameters

Extended collection of information and parameters for CZ-6A DEB.

Object identification

Identified? True

Debris? True

Object name: CZ-6A DEB

International designator: 2024-140SD

Object number (NORAD): 61268

Object ID (CCSDS): 61268

Country: PEOPLES REPUBLIC OF CHINA (PRC)

Current information (Y/N): Y

RCS size: SMALL

Orbital parameters

Period: 102.427 minutes

Inclination: 89.0066 deg

SMA: 7251.631 km

Apoapsis: 970.627 km

Periapsis: 776.365 km

RAAN: 321.6255 deg

Eccentricy: 0.0133944

Argument of periapsis: 115.8293 deg

Mean anomaly: 245.6775 deg

Mean motion: 14.05883174 rev/day

Mean motion (dot): 0.00006343 rev/day2

B* drag term: 0.0035685 1/REarth

Two-line elements (TLE)

Creation date: May 4, 2025, 5:21 p.m.

Reference frame: TEME

Reference center: EARTH

Epoch: May 4, 2025, 1:17 p.m. UTC

TLE line 0: 0 CZ-6A DEB

TLE line 1: 1 61268U 24140SD 25124.55372277 .00006343 00000-0 35685-2 0 9991

TLE line 2: 2 61268 89.0066 321.6255 0133944 115.8293 245.6775 14.05883174 35264

Live tracking on map

Real-time ground track for satellite CZ-6A DEB.

In-orbit conjunctions

A list of the most updated potential collisions computed for object CZ-6A DEB.

Target Orbit TCA Probability of collision Miss distance Type
SL-14 R/B LEO 2025-02-28 17:02:06 0.00222476 56.0 (m) ROCKET BODY
COSMOS 2251 DEB LEO 2025-01-31 11:36:47 0.0001769263 412.0 (m) DEBRIS
NOAA 16 DEB SSO 2025-01-18 07:34:21 0.0001732534 934.0 (m) DEBRIS
CZ-6A DEB LEO 2025-01-11 11:17:32 0.0006875745 610.0 (m) DEBRIS
NOAA 16 DEB SSO 2024-10-24 22:46:22 0.000120261 880.0 (m) DEBRIS

Associated space launch

18 Low Earth Orbit communication satellites with Ku, Q and V band payloads for the G60 constellation operated by Shanghai Spacecom Satellite Technology (SSST) with funding backed by the Shanghai local government. Initial constellation will consist of 1296 satellites by 2027 with long term plans to expand it to 12000 satellites.

CZ-6A DEB was lifted into orbit during the mission ‘Long March 6A | G60 Polar Group 01’, on board a Long March 6A space rocket.

The launch took place on Aug. 6, 2024, 6:42 a.m. from Launch Complex 9A.

For more information about the launch, click the button.

Launch to space Long March 6A | G60 Polar Group 01
Long March 6A | G60 Polar Group 01

Agency: N/A

Status: Launch Successful

Launch date: Aug. 6, 2024, 6:42 a.m. UTC

Rocket: Long March 6A

Launch pad: Launch Complex 9A

Location: Taiyuan Satellite Launch Center, People's Republic of China

...

Latest news about this satellite

News about space launch
Brightness of first Chinese broadband constellation satellites alarms astronomers

The first satellites of a Chinese broadband constellation are significantly brighter than those of Western systems, posing a new challenge for astronomers.

News about space launch
Chinese rocket stage breaks up into cloud of more than 700 pieces of space debris

HELSINKI — A Chinese Long March 6A rocket’s upper stage has fragmented into a cloud of over 700 pieces of space debris, adding to concerns about long-term orbital safety. China […]

News about space launch
China's Thousand Sails Megaconstellation Kicks Off with Dangerous Debris Field

China's Thousand Sails Megaconstellation Kicks Off with Dangerous Debris Field


Newsletter sign-up

Weekly statistics, charts and insights to help you stay on top of the space industry.